SCP
0 0 0 0 0 0 0 0 0 0 0 0 0 0 0 0 0 0 0 0 0 0 0 0 0 0 0 0 0 0 0 0 0 0 0 0 0 0
0 0 0 0 0 0 0 0 0 0 0 0 0 0 0 0 0 0 0 0 0 0 0 0 0 0 0 0 0 0 0 0 0 0 0 0 0 0
0 0 0 0 0 0 0 0 0 0 0 0 0 0 0 0 -0 -0 -0 0 0 0 0 0 0 0 0 0 0 0 0 0 0 0 0 0 0 0
0 0 0 0 0 0 0 0 0 0 0 0 0 0 0 -0 -0 -0 -0 0 0 0 0 0 0 0 0 0 0 0 0 0 0 0 0 0 0 0
0 0 0 0 0 0 0 0 0 0 0 0 0 0 0 -0 -0 0 0 0 0 0 0 0 0 0 0 0 0 0 0 0 0 0 0 0 0 0
0 0 0 0 0 0 0 0 0 0 0 0 0 0 0 0 -0 0 0 0 0 0 0 0 0 0 0 0 0 0 0 0 0 0 0 0 0 0
0 0 0 0 0 0 0 0 0 0 0 0 0 0 0 0 -0 -0 0 0 0 0 0 0 0 0 0 0 0 0 0 0 0 0 0 0 0 0
0 0 0 0 0 0 0 0 0 0 0 0 0 0 0 0 -0 -0 0 0 0 0 0 0 0 0 0 0 0 0 0 0 0 0 0 0 0 0
0 0 0 0 0 0 0 0 0 0 0 0 0 0 0 0 -0 -0 0 0 0 0 0 0 0 0 0 0 0 0 0 0 0 0 0 0 0 0
0 0 0 0 0 0 0 0 0 0 0 0 0 0 0 -0 -0 -0 0 0 0 0 0 0 0 0 0 0 0 0 0 0 0 0 0 0 0 0
0 0 0 0 0 0 0 0 0 0 0 0 0 0 0 0 0 0 0 0 0 0 0 0 0 0 0 0 0 0 0 0 0 0 0 0 0 0
0 0 0 0 0 0 0 0 0 0 0 0 0 0 0 0 0 0 0 0 0 0 0 0 0 0 0 0 0 0 0 0 0 0 0 0 0 0
0 0 0 0 0 0 0 0 0 0 0 0 0 0 0 0 0 0 0 0 0 0 0 0 0 0 0 0 0 0 0 0 0 0 0 0 0 0
0 0 0 0 0 0 0 0 0 0 0 0 0 0 0 0 0 0 0 0 0 0 0 0 0 0 0 0 0 0 0 0 0 0 0 0 0 0
0 0 0 0 0 0 0 0 0 0 0 0 0 0 0 0 0 0 0 0 0 0 0 0 0 0 0 0 0 0 0 0 0 0 0 0 0 0
0 0 0 0 0 0 0 0 0 0 0 0 0 0 0 0 0 0 0 0 0 0 0 0 0 0 0 0 0 0 0 0 0 0 0 0 0 0
0 0 0 0 0 0 0 0 0 0 0 0 0 0 0 0 0 0 0 0 0 0 0 0 0 0 0 0 0 0 0 0 0 0 0 0 0 0
0 0 0 0 0 0 0 0 0 0 0 0 0 0 0 0 0 0 0 0 0 0 0 0 0 0 0 0 0 0 0 0 0 0 0 0 0 0
0 0 0 0 0 0 0 0 0 0 0 0 0 0 0 0 0 0 0 0 0 0 0 0 0 0 0 0 0 0 0 0 0 0 0 0 0 0
0 0 0 0 0 0 0 0 0 0 0 0 0 0 0 0 0 0 0 0 0 0 0 0 0 0 0 0 0 0 0 0 0 0 0 0 0 0
0 0 0 0 0 0 0 0 0 0 0 0 0 0 0 0 0 0 0 0 0 0 0 0 0 0 0 0 0 0 0 0 0 0 0 0 0 0
0 0 0 0 0 0 0 0 0 0 0 0 0 0 0 0 0 0 0 0 0 0 0 0 0 0 0 0 0 0 0 0 0 0 0 0 0 0
0 0 0 0 0 0 0 0 0 0 0 0 0 0 0 0 0 0 0 0 0 0 0 0 0 0 0 0 0 0 0 0 0 0 0 0 0 0
Wind_Speed
3 3 2 2 2 2 1 1 2 1 2 3 2 4 3 4 5 4 6 10 10 10 10 11 11 11 11 11 10 10 9 9 8 8 8 8 8 7
2 3 3 2 2 2 1 2 2 2 2 2 2 3 4 3 5 5 5 6 9 10 10 10 10 10 10 10 10 10 10 9 9 9 8 9 9 8
3 3 3 3 2 2 1 1 2 2 1 2 2 3 3 4 4 4 4 4 6 9 9 9 10 10 9 9 9 10 9 10 9 9 9 10 10 10
3 2 3 2 2 2 2 2 2 2 1 1 1 2 3 4 4 4 4 4 4 7 8 8 9 9 9 10 9 9 9 10 9 9 9 9 9 9
2 2 2 2 2 2 1 1 1 1 1 0 2 2 2 3 3 3 4 3 4 3 3 5 7 7 8 8 9 9 9 9 9 9 9 9 10 10
2 2 2 3 3 2 1 2 1 1 1 1 1 1 2 3 2 3 2 2 3 4 4 4 3 2 5 6 8 8 9 9 8 8 9 9 9 9
2 3 4 5 7 5 3 2 1 1 0 1 1 1 2 2 3 3 3 3 2 3 4 4 3 3 2 3 5 8 8 8 8 8 8 9 9 9
2 2 3 3 5 4 5 5 4 3 2 1 1 2 2 3 3 3 3 3 3 3 5 4 3 3 3 3 6 7 7 8 8 8 9 9 9 8
1 2 2 2 1 3 4 3 3 3 4 4 2 3 3 3 3 3 3 4 4 4 4 4 3 3 3 3 4 6 6 7 8 9 9 9 9 8
1 1 1 2 2 2 1 1 2 3 3 2 3 3 4 4 4 4 4 4 3 2 4 4 4 4 3 2 1 3 5 6 7 8 9 9 10 8
1 0 0 1 4 3 1 0 1 2 4 3 4 3 4 4 5 3 3 3 3 2 3 4 5 5 4 3 1 1 3 4 6 7 9 10 11 10
2 2 2 1 2 3 2 1 1 1 1 1 1 2 2 0 3 3 4 4 4 3 3 4 5 5 5 2 2 3 3 3 5 6 7 8 10 7
2 1 2 3 1 2 4 2 3 3 2 2 2 2 2 2 2 2 3 4 4 4 4 5 5 5 6 6 4 4 5 5 5 5 5 6 6 7
1 1 2 3 1 2 2 2 2 4 2 2 2 2 2 2 3 3 4 4 4 5 6 6 5 6 7 8 6 5 5 6 6 6 6 6 6 6
0 3 2 2 3 2 2 2 4 3 2 3 3 2 3 3 3 3 4 4 5 5 5 6 6 6 7 8 8 7 7 6 6 6 7 7 7 6
2 3 4 3 3 1 2 3 3 2 3 3 3 3 3 3 4 4 4 4 5 5 5 6 6 7 7 8 8 8 7 7 6 7 7 7 7 7
1 2 3 2 2 2 2 2 2 2 3 3 3 4 4 4 4 4 5 5 6 6 5 4 5 6 7 8 8 7 8 7 7 7 8 8 8 7
3 3 3 3 3 2 3 3 3 3 3 4 4 4 5 5 5 5 5 5 6 6 6 6 6 6 7 6 6 8 8 7 7 8 8 9 9 8
4 3 3 3 3 3 3 3 3 3 3 4 4 5 5 5 5 5 5 6 6 6 6 6 6 7 9 9 5 5 7 8 8 8 8 9 10 9
4 3 3 3 3 3 3 3 3 3 4 4 5 5 5 5 6 6 6 7 7 7 7 6 6 7 8 10 10 8 7 8 8 9 9 9 9 10
3 3 3 3 3 3 3 3 4 4 4 4 4 5 5 5 6 6 6 7 8 8 8 7 6 7 9 9 9 9 7 6 8 9 10 10 10 10
3 3 3 3 3 3 3 3 4 4 4 4 4 5 5 5 6 8 7 7 7 7 9 8 8 7 7 9 11 11 10 9 8 10 12 12 10 10
4 3 3 3 3 3 3 4 5 4 4 4 5 5 5 6 6 7 7 8 8 8 8 8 8 7 8 9 10 10 13 12 9 9 9 9 14 17
Wind_Direction
60 66 55 64 42 27 16 338 318 327 67 51 28 27 12 33 4 16 36 41 28 28 28 27 27 29 30 30 33 31 28 26 24 20 17 10 1 351
46 47 47 56 56 48 16 3 346 343 38 45 29 29 18 21 26 20 43 56 42 32 31 29 28 29 31 31 30 30 28 24 23 22 17 10 4 4
78 66 62 44 41 43 28 23 20 14 48 57 42 30 21 20 22 16 22 27 53 41 32 30 29 29 30 29 28 24 21 20 20 19 21 19 17 16
68 64 67 73 47 30 21 28 35 10 18 47 39 22 20 22 16 11 22 23 30 53 36 32 30 28 28 29 29 25 20 18 18 18 17 16 14 12
68 62 56 62 62 57 24 32 39 40 22 21 33 24 11 16 6 10 29 16 7 44 47 47 37 28 26 26 27 25 20 16 14 14 12 10 8 5
63 48 39 30 22 30 32 44 44 56 47 36 29 25 21 11 350 356 1 11 2 358 3 2 32 35 37 30 26 20 15 10 8 11 9 5 2 359
97 76 58 47 32 21 11 16 26 16 38 22 13 360 4 356 355 344 343 341 0 353 338 343 348 353 16 39 25 15 7 5 5 4 2 358 354 351
119 105 102 105 91 77 54 34 10 354 351 352 335 337 349 352 350 327 333 332 335 352 326 330 333 340 351 7 21 11 1 360 360 357 353 349 347 343
127 115 95 91 176 113 115 133 79 38 350 329 331 344 343 348 330 324 325 324 329 343 322 315 325 323 331 19 26 3 355 352 351 350 346 341 338 335
145 136 134 110 61 16 83 67 46 40 16 335 348 354 351 340 323 318 314 304 301 322 316 307 319 316 316 323 50 352 344 339 337 339 337 333 327 320
153 103 0 107 74 330 279 56 60 75 89 62 20 13 15 353 322 300 304 298 308 323 336 312 315 312 300 287 235 240 300 313 316 321 324 324 318 306
157 145 76 45 84 307 271 271 297 352 342 172 201 207 240 192 283 296 307 305 310 313 345 315 314 317 303 293 307 302 290 282 279 285 300 310 313 305
188 179 116 120 131 308 299 320 351 321 299 300 310 318 310 319 319 317 321 311 307 308 324 312 307 308 301 303 305 307 308 309 304 296 284 290 297 298
213 190 113 129 158 283 297 27 327 288 278 285 292 302 308 314 316 319 314 308 303 305 307 301 297 302 301 299 301 308 306 308 309 310 310 299 282 270
169 64 95 166 200 205 174 238 253 260 274 277 286 298 307 311 308 300 294 295 294 292 290 287 285 289 290 293 299 302 305 306 307 307 307 308 306 303
180 149 170 202 233 242 213 224 248 285 289 284 290 294 295 289 287 294 295 294 289 289 288 287 284 285 284 288 290 294 297 299 304 306 304 301 298 296
183 201 213 212 224 228 240 255 266 260 263 277 282 285 286 285 287 289 290 289 289 295 300 297 288 280 278 284 286 288 293 294 297 303 302 297 295 296
205 217 225 236 244 252 258 260 261 268 278 281 280 282 285 287 288 287 284 285 290 295 299 303 300 289 273 259 257 283 290 294 298 298 295 295 295 298
216 229 234 243 252 259 265 268 272 276 279 277 278 282 285 288 289 290 290 290 290 291 293 295 294 292 293 294 282 242 286 296 295 293 293 294 294 299
232 239 243 249 257 262 267 272 276 276 274 276 279 282 284 286 288 290 291 294 295 294 293 290 288 291 292 297 298 291 258 280 291 293 295 293 291 288
233 243 250 252 258 264 270 273 275 276 278 280 281 283 284 285 286 287 290 292 288 290 294 297 301 289 285 284 282 285 289 261 268 283 293 295 296 295
237 244 250 258 260 262 265 268 271 272 276 279 284 286 286 286 287 288 290 291 290 292 296 297 298 291 286 286 289 294 296 295 273 253 257 265 283 290
241 247 251 253 257 261 262 265 271 276 279 284 287 289 290 289 288 288 288 287 288 290 291 293 295 292 290 289 290 292 295 299 297 291 278 254 251 263